Time,TemperatureF,DewpointF,PressureIn,WindDirection,WindDirectionDegrees,WindSpeedMPH,WindSpeedGustMPH,Humidity,HourlyPrecipIn,Conditions,Clouds,dailyrainin,SoftwareType,DateUTC
2013-07-23 00:01:00,69.7,66.0,29.69,WSW,246,0.0,2.0,88,0.00,,,0.00,WUHU216DAVISVP2,2013-07-23 04:01:00,
2013-07-23 00:06:00,69.6,66.2,29.69,SW,229,1.0,2.0,89,0.00,,,0.00,WUHU216DAVISVP2,2013-07-23 04:06:00,
2013-07-23 00:11:00,69.6,66.2,29.69,SSW,209,1.0,2.0,89,0.00,,,0.00,WUHU216DAVISVP2,2013-07-23 04:11:00,
2013-07-23 00:16:00,69.5,66.1,29.69,SW,215,1.0,2.0,89,0.00,,,0.00,WUHU216DAVISVP2,2013-07-23 04:16:00,
2013-07-23 00:21:00,69.4,66.0,29.69,SSW,212,1.0,3.0,89,0.00,,,0.00,WUHU216DAVISVP2,2013-07-23 04:21:00,
2013-07-23 00:26:00,69.3,65.9,29.69,SSW,213,1.0,3.0,89,0.00,,,0.00,WUHU216DAVISVP2,2013-07-23 04:26:00,
2013-07-23 00:31:00,69.3,65.9,29.69,West,260,1.0,3.0,89,0.00,,,0.00,WUHU216DAVISVP2,2013-07-23 04:31:00,
2013-07-23 00:36:00,69.3,65.9,29.69,SSW,201,2.0,3.0,89,0.00,,,0.00,WUHU216DAVISVP2,2013-07-23 04:36:00,
2013-07-23 00:41:00,69.2,65.8,29.68,SW,215,1.0,3.0,89,0.00,,,0.00,WUHU216DAVISVP2,2013-07-23 04:41:00,
2013-07-23 00:46:00,69.0,65.6,29.68,SSW,212,1.0,3.0,89,0.00,,,0.00,WUHU216DAVISVP2,2013-07-23 04:46:00,
2013-07-23 00:51:00,68.9,65.8,29.68,SSW,205,1.0,3.0,90,0.00,,,0.00,WUHU216DAVISVP2,2013-07-23 04:51:00,
2013-07-23 00:56:00,68.9,65.8,29.68,West,259,1.0,4.0,90,0.00,,,0.00,WUHU216DAVISVP2,2013-07-23 04:56:00,
2013-07-23 01:01:00,68.9,65.8,29.68,WSW,242,1.0,4.0,90,0.00,,,0.00,WUHU216DAVISVP2,2013-07-23 05:01:00,
2013-07-23 01:06:00,68.8,66.1,29.68,SW,216,2.0,4.0,91,0.00,,,0.00,WUHU216DAVISVP2,2013-07-23 05:06:00,
2013-07-23 01:11:00,68.8,66.0,29.67,SW,229,2.0,4.0,91,0.00,,,0.00,WUHU216DAVISVP2,2013-07-23 05:11:00,
2013-07-23 01:16:00,68.8,66.0,29.68,SSW,204,2.0,4.0,91,0.00,,,0.00,WUHU216DAVISVP2,2013-07-23 05:16:00,
2013-07-23 01:21:00,68.8,66.4,29.68,SSW,200,1.0,4.0,92,0.00,,,0.00,WUHU216DAVISVP2,2013-07-23 05:21:00,
2013-07-23 01:26:00,68.8,66.4,29.68,SW,225,0.0,3.0,92,0.00,,,0.00,WUHU216DAVISVP2,2013-07-23 05:26:00,
2013-07-23 01:31:00,68.7,66.3,29.68,SSW,202,2.0,3.0,92,0.00,,,0.00,WUHU216DAVISVP2,2013-07-23 05:31:00,
2013-07-23 01:36:00,68.6,66.2,29.68,WSW,246,1.0,3.0,92,0.00,,,0.00,WUHU216DAVISVP2,2013-07-23 05:36:00,
2013-07-23 01:41:00,68.6,66.2,29.68,SW,228,1.0,2.0,92,0.00,,,0.00,WUHU216DAVISVP2,2013-07-23 05:41:00,
2013-07-23 01:46:00,68.5,66.1,29.68,South,170,1.0,2.0,92,0.00,,,0.00,WUHU216DAVISVP2,2013-07-23 05:46:00,
2013-07-23 01:51:00,68.4,66.3,29.67,SW,224,1.0,2.0,93,0.00,,,0.00,WUHU216DAVISVP2,2013-07-23 05:51:00,
2013-07-23 01:56:00,68.4,66.3,29.67,WSW,249,1.0,3.0,93,0.00,,,0.00,WUHU216DAVISVP2,2013-07-23 05:56:00,
2013-07-23 02:01:00,68.5,66.4,29.67,SW,231,1.0,3.0,93,0.00,,,0.00,WUHU216DAVISVP2,2013-07-23 06:01:00,
2013-07-23 02:06:00,68.6,66.5,29.67,SW,235,1.0,4.0,93,0.00,,,0.00,WUHU216DAVISVP2,2013-07-23 06:06:00,
2013-07-23 02:11:00,68.7,66.6,29.67,SW,222,1.0,4.0,93,0.00,,,0.00,WUHU216DAVISVP2,2013-07-23 06:11:00,
2013-07-23 02:16:00,68.8,66.7,29.66,SW,231,2.0,4.0,93,0.00,,,0.00,WUHU216DAVISVP2,2013-07-23 06:16:00,
2013-07-23 02:21:00,68.9,66.8,29.66,WSW,257,1.0,4.0,93,0.00,,,0.00,WUHU216DAVISVP2,2013-07-23 06:21:00,
2013-07-23 02:26:00,68.9,66.5,29.66,SW,236,3.0,4.0,92,0.00,,,0.00,WUHU216DAVISVP2,2013-07-23 06:26:00,
2013-07-23 02:31:00,68.9,66.5,29.66,SW,223,1.0,4.0,92,0.00,,,0.00,WUHU216DAVISVP2,2013-07-23 06:31:00,
2013-07-23 02:36:00,68.9,66.5,29.66,West,260,2.0,3.0,92,0.00,,,0.00,WUHU216DAVISVP2,2013-07-23 06:36:00,
2013-07-23 02:41:00,68.8,66.4,29.66,SW,233,2.0,3.0,92,0.00,,,0.00,WUHU216DAVISVP2,2013-07-23 06:41:00,
2013-07-23 02:46:00,68.7,66.3,29.66,WSW,245,2.0,3.0,92,0.00,,,0.00,WUHU216DAVISVP2,2013-07-23 06:46:00,
2013-07-23 02:51:00,68.7,66.3,29.65,SW,218,0.0,3.0,92,0.00,,,0.00,WUHU216DAVISVP2,2013-07-23 06:51:00,
2013-07-23 02:56:00,68.6,66.2,29.65,South,188,3.0,3.0,92,0.00,,,0.00,WUHU216DAVISVP2,2013-07-23 06:56:00,
2013-07-23 03:01:00,68.4,66.0,29.64,SSW,195,1.0,4.0,92,0.00,,,0.00,WUHU216DAVISVP2,2013-07-23 07:01:00,
2013-07-23 03:06:00,68.4,66.0,29.64,SW,218,2.0,4.0,92,0.00,,,0.00,WUHU216DAVISVP2,2013-07-23 07:06:00,
2013-07-23 03:11:00,68.3,65.9,29.64,SSW,195,1.0,4.0,92,0.00,,,0.00,WUHU216DAVISVP2,2013-07-23 07:11:00,
2013-07-23 03:16:00,68.3,65.9,29.64,SSW,198,2.0,4.0,92,0.00,,,0.00,WUHU216DAVISVP2,2013-07-23 07:16:00,
2013-07-23 03:21:00,68.2,65.8,29.64,SSW,208,1.0,4.0,92,0.00,,,0.00,WUHU216DAVISVP2,2013-07-23 07:21:00,
2013-07-23 03:26:00,68.1,65.7,29.63,SSW,197,3.0,4.0,92,0.00,,,0.00,WUHU216DAVISVP2,2013-07-23 07:26:00,
2013-07-23 03:31:00,68.1,65.7,29.62,SW,223,2.0,4.0,92,0.00,,,0.00,WUHU216DAVISVP2,2013-07-23 07:31:00,
2013-07-23 03:36:00,68.0,65.6,29.62,SSW,204,2.0,3.0,92,0.00,,,0.00,WUHU216DAVISVP2,2013-07-23 07:36:00,
2013-07-23 03:41:00,67.9,65.8,29.62,SW,214,1.0,3.0,93,0.00,,,0.00,WUHU216DAVISVP2,2013-07-23 07:41:00,
2013-07-23 03:46:00,67.9,65.8,29.62,WSW,250,1.0,3.0,93,0.00,,,0.00,WUHU216DAVISVP2,2013-07-23 07:46:00,
2013-07-23 03:51:00,67.9,65.8,29.62,SSW,193,1.0,3.0,93,0.00,,,0.00,WUHU216DAVISVP2,2013-07-23 07:51:00,
2013-07-23 03:56:00,67.7,65.6,29.61,SW,226,1.0,3.0,93,0.00,,,0.00,WUHU216DAVISVP2,2013-07-23 07:56:00,
2013-07-23 04:01:00,67.6,65.5,29.62,SW,215,1.0,3.0,93,0.00,,,0.00,WUHU216DAVISVP2,2013-07-23 08:01:00,
2013-07-23 04:06:00,67.5,65.4,29.62,SSW,198,1.0,3.0,93,0.00,,,0.00,WUHU216DAVISVP2,2013-07-23 08:06:00,
2013-07-23 04:11:00,67.4,65.3,29.62,WSW,256,1.0,3.0,93,0.00,,,0.00,WUHU216DAVISVP2,2013-07-23 08:11:00,
2013-07-23 04:16:00,67.4,65.3,29.62,SSW,200,0.0,3.0,93,0.00,,,0.00,WUHU216DAVISVP2,2013-07-23 08:16:00,
2013-07-23 04:21:00,67.4,65.3,29.62,SW,232,1.0,3.0,93,0.00,,,0.00,WUHU216DAVISVP2,2013-07-23 08:21:00,
2013-07-23 04:26:00,67.5,65.4,29.62,SW,227,1.0,3.0,93,0.00,,,0.00,WUHU216DAVISVP2,2013-07-23 08:26:00,
2013-07-23 04:31:00,67.7,65.6,29.61,SSW,212,1.0,4.0,93,0.00,,,0.00,WUHU216DAVISVP2,2013-07-23 08:31:00,
2013-07-23 04:36:00,67.7,65.6,29.61,SSW,212,1.0,6.0,93,0.00,,,0.00,WUHU216DAVISVP2,2013-07-23 08:36:00,
2013-07-23 04:41:00,67.7,65.3,29.61,SSW,198,2.0,6.0,92,0.00,,,0.00,WUHU216DAVISVP2,2013-07-23 08:41:00,
2013-07-23 04:46:00,67.6,65.5,29.61,SSW,211,2.0,5.0,93,0.00,,,0.00,WUHU216DAVISVP2,2013-07-23 08:46:00,
2013-07-23 04:51:00,67.6,65.5,29.61,SSW,197,1.0,5.0,93,0.00,,,0.00,WUHU216DAVISVP2,2013-07-23 08:51:00,
2013-07-23 04:56:00,67.6,65.5,29.61,SSW,192,2.0,4.0,93,0.00,,,0.00,WUHU216DAVISVP2,2013-07-23 08:56:00,
2013-07-23 05:01:00,67.5,65.4,29.61,SW,222,1.0,4.0,93,0.00,,,0.00,WUHU216DAVISVP2,2013-07-23 09:01:00,
2013-07-23 05:06:00,67.5,65.4,29.61,SW,215,2.0,4.0,93,0.00,,,0.00,WUHU216DAVISVP2,2013-07-23 09:06:00,
2013-07-23 05:11:00,67.5,65.4,29.61,SW,230,1.0,4.0,93,0.00,,,0.00,WUHU216DAVISVP2,2013-07-23 09:11:00,
2013-07-23 05:16:00,67.6,65.5,29.61,WSW,239,2.0,4.0,93,0.00,,,0.00,WUHU216DAVISVP2,2013-07-23 09:16:00,
2013-07-23 05:21:00,67.7,65.6,29.61,SW,232,1.0,4.0,93,0.00,,,0.00,WUHU216DAVISVP2,2013-07-23 09:21:00,
2013-07-23 05:26:00,67.9,65.8,29.61,SW,220,1.0,3.0,93,0.00,,,0.00,WUHU216DAVISVP2,2013-07-23 09:26:00,
2013-07-23 05:31:00,68.1,65.7,29.61,SW,225,2.0,6.0,92,0.00,,,0.00,WUHU216DAVISVP2,2013-07-23 09:31:00,
2013-07-23 05:36:00,68.2,65.8,29.61,West,260,1.0,6.0,92,0.00,,,0.00,WUHU216DAVISVP2,2013-07-23 09:36:00,
2013-07-23 05:41:00,68.2,65.8,29.61,South,177,2.0,6.0,92,0.00,,,0.00,WUHU216DAVISVP2,2013-07-23 09:41:00,
2013-07-23 05:46:00,68.2,65.8,29.61,SW,229,1.0,5.0,92,0.00,,,0.00,WUHU216DAVISVP2,2013-07-23 09:46:00,
2013-07-23 05:51:00,68.2,65.8,29.61,South,188,1.0,5.0,92,0.00,,,0.00,WUHU216DAVISVP2,2013-07-23 09:51:00,
2013-07-23 05:56:00,68.2,65.8,29.61,WSW,248,1.0,5.0,92,0.00,,,0.00,WUHU216DAVISVP2,2013-07-23 09:56:00,
2013-07-23 06:01:00,68.3,65.9,29.61,SSW,205,3.0,4.0,92,0.00,,,0.00,WUHU216DAVISVP2,2013-07-23 10:01:00,
2013-07-23 06:06:00,68.2,65.8,29.61,SSW,208,1.0,4.0,92,0.00,,,0.00,WUHU216DAVISVP2,2013-07-23 10:06:00,
2013-07-23 06:11:00,68.2,65.8,29.61,WSW,240,1.0,4.0,92,0.00,,,0.00,WUHU216DAVISVP2,2013-07-23 10:11:00,
2013-07-23 06:16:00,68.2,65.8,29.61,SSW,201,1.0,3.0,92,0.00,,,0.00,WUHU216DAVISVP2,2013-07-23 10:16:00,
2013-07-23 06:21:00,68.1,65.7,29.61,SW,217,1.0,3.0,92,0.00,,,0.00,WUHU216DAVISVP2,2013-07-23 10:21:00,
2013-07-23 06:26:00,68.0,65.9,29.61,SW,226,1.0,3.0,93,0.00,,,0.00,WUHU216DAVISVP2,2013-07-23 10:26:00,
2013-07-23 06:31:00,67.9,65.8,29.61,SSW,211,2.0,3.0,93,0.00,,,0.00,WUHU216DAVISVP2,2013-07-23 10:31:00,
2013-07-23 06:36:00,67.9,65.8,29.61,SSW,199,2.0,3.0,93,0.00,,,0.00,WUHU216DAVISVP2,2013-07-23 10:36:00,
2013-07-23 06:41:00,67.9,65.8,29.61,SSW,203,0.0,4.0,93,0.00,,,0.00,WUHU216DAVISVP2,2013-07-23 10:41:00,
2013-07-23 06:46:00,67.9,65.8,29.61,SW,220,1.0,4.0,93,0.00,,,0.00,WUHU216DAVISVP2,2013-07-23 10:46:00,
2013-07-23 06:51:00,67.9,65.8,29.61,WSW,256,2.0,4.0,93,0.00,,,0.00,WUHU216DAVISVP2,2013-07-23 10:51:00,
2013-07-23 06:56:00,68.0,65.9,29.61,South,183,0.0,4.0,93,0.00,,,0.00,WUHU216DAVISVP2,2013-07-23 10:56:00,
2013-07-23 07:01:00,68.1,66.0,29.61,SW,219,1.0,3.0,93,0.00,,,0.00,WUHU216DAVISVP2,2013-07-23 11:01:00,
2013-07-23 07:06:00,68.3,66.2,29.61,South,184,1.0,5.0,93,0.00,,,0.00,WUHU216DAVISVP2,2013-07-23 11:06:00,
2013-07-23 07:11:00,68.4,66.0,29.61,WSW,255,1.0,7.0,92,0.00,,,0.00,WUHU216DAVISVP2,2013-07-23 11:11:00,
2013-07-23 07:16:00,68.5,66.1,29.61,South,186,3.0,7.0,92,0.00,,,0.00,WUHU216DAVISVP2,2013-07-23 11:16:00,
2013-07-23 07:21:00,68.6,66.2,29.60,WSW,240,2.0,6.0,92,0.00,,,0.00,WUHU216DAVISVP2,2013-07-23 11:21:00,
2013-07-23 07:26:00,68.7,66.3,29.61,WSW,239,2.0,8.0,92,0.00,,,0.00,WUHU216DAVISVP2,2013-07-23 11:26:00,
2013-07-23 07:31:00,68.8,66.0,29.61,WSW,256,2.0,8.0,91,0.00,,,0.00,WUHU216DAVISVP2,2013-07-23 11:31:00,
2013-07-23 07:36:00,69.1,66.4,29.61,WSW,245,4.0,9.0,91,0.00,,,0.00,WUHU216DAVISVP2,2013-07-23 11:36:00,
2013-07-23 07:41:00,69.4,66.7,29.62,West,262,2.0,9.0,91,0.00,,,0.00,WUHU216DAVISVP2,2013-07-23 11:41:00,
2013-07-23 07:46:00,69.6,66.5,29.63,West,262,3.0,8.0,90,0.00,,,0.00,WUHU216DAVISVP2,2013-07-23 11:46:00,
2013-07-23 07:51:00,69.6,66.5,29.63,WSW,255,3.0,8.0,90,0.00,,,0.00,WUHU216DAVISVP2,2013-07-23 11:51:00,
2013-07-23 07:56:00,69.5,66.8,29.64,West,263,4.0,7.0,91,0.05,,,0.05,WUHU216DAVISVP2,2013-07-23 11:56:00,
2013-07-23 08:01:00,68.9,66.8,29.63,SW,223,1.0,7.0,93,0.12,,,0.12,WUHU216DAVISVP2,2013-07-23 12:01:00,
2013-07-23 08:06:00,68.5,66.4,29.63,West,271,1.0,7.0,93,0.14,,,0.14,WUHU216DAVISVP2,2013-07-23 12:06:00,
2013-07-23 08:11:00,68.3,66.5,29.62,WSW,251,1.0,7.0,94,0.17,,,0.17,WUHU216DAVISVP2,2013-07-23 12:11:00,
2013-07-23 08:16:00,68.1,66.6,29.62,WSW,242,0.0,4.0,95,0.19,,,0.19,WUHU216DAVISVP2,2013-07-23 12:16:00,
2013-07-23 08:21:00,68.0,66.5,29.62,SW,215,0.0,3.0,95,0.19,,,0.19,WUHU216DAVISVP2,2013-07-23 12:21:00,
2013-07-23 08:26:00,68.0,66.5,29.61,SSW,203,1.0,2.0,95,0.19,,,0.19,WUHU216DAVISVP2,2013-07-23 12:26:00,
2013-07-23 08:31:00,68.0,66.8,29.61,West,262,1.0,2.0,96,0.19,,,0.19,WUHU216DAVISVP2,2013-07-23 12:31:00,
2013-07-23 08:36:00,68.0,66.8,29.61,WSW,256,1.0,3.0,96,0.19,,,0.19,WUHU216DAVISVP2,2013-07-23 12:36:00,
2013-07-23 08:41:00,67.9,66.7,29.61,WSW,253,1.0,3.0,96,0.19,,,0.19,WUHU216DAVISVP2,2013-07-23 12:41:00,
2013-07-23 08:46:00,68.0,66.8,29.61,WSW,237,1.0,3.0,96,0.19,,,0.19,WUHU216DAVISVP2,2013-07-23 12:46:00,
2013-07-23 08:51:00,68.1,66.9,29.61,WSW,249,1.0,3.0,96,0.19,,,0.19,WUHU216DAVISVP2,2013-07-23 12:51:00,
2013-07-23 08:56:00,68.4,67.2,29.61,SW,225,1.0,4.0,96,0.14,,,0.19,WUHU216DAVISVP2,2013-07-23 12:56:00,
2013-07-23 09:01:00,68.5,67.3,29.61,SW,236,2.0,4.0,96,0.07,,,0.19,WUHU216DAVISVP2,2013-07-23 13:01:00,
2013-07-23 09:06:00,68.7,67.5,29.61,WSW,255,1.0,3.0,96,0.05,,,0.19,WUHU216DAVISVP2,2013-07-23 13:06:00,
2013-07-23 09:11:00,68.8,67.6,29.61,West,262,1.0,3.0,96,0.03,,,0.20,WUHU216DAVISVP2,2013-07-23 13:11:00,
2013-07-23 09:16:00,68.8,67.6,29.61,South,169,4.0,4.0,96,0.01,,,0.20,WUHU216DAVISVP2,2013-07-23 13:16:00,
2013-07-23 09:21:00,68.9,67.7,29.60,WSW,252,0.0,4.0,96,0.02,,,0.21,WUHU216DAVISVP2,2013-07-23 13:21:00,
2013-07-23 09:26:00,69.0,67.8,29.59,WSW,251,0.0,4.0,96,0.03,,,0.22,WUHU216DAVISVP2,2013-07-23 13:26:00,
2013-07-23 09:31:00,69.1,67.9,29.58,WSW,252,0.0,4.0,96,0.03,,,0.22,WUHU216DAVISVP2,2013-07-23 13:31:00,
2013-07-23 09:36:00,69.3,68.4,29.58,North,355,1.0,2.0,97,0.03,,,0.22,WUHU216DAVISVP2,2013-07-23 13:36:00,
2013-07-23 09:41:00,69.3,68.1,29.58,WNW,290,0.0,4.0,96,0.03,,,0.22,WUHU216DAVISVP2,2013-07-23 13:41:00,
2013-07-23 09:46:00,69.5,68.3,29.58,West,278,0.0,4.0,96,0.03,,,0.22,WUHU216DAVISVP2,2013-07-23 13:46:00,
2013-07-23 09:51:00,69.8,68.6,29.58,SW,215,1.0,4.0,96,0.03,,,0.22,WUHU216DAVISVP2,2013-07-23 13:51:00,
2013-07-23 09:56:00,70.1,68.9,29.58,West,274,1.0,4.0,96,0.03,,,0.22,WUHU216DAVISVP2,2013-07-23 13:56:00,
2013-07-23 10:01:00,70.5,69.0,29.57,West,274,0.0,2.0,95,0.03,,,0.22,WUHU216DAVISVP2,2013-07-23 14:01:00,
2013-07-23 10:06:00,70.9,69.4,29.58,SW,232,1.0,2.0,95,0.03,,,0.22,WUHU216DAVISVP2,2013-07-23 14:06:00,
2013-07-23 10:11:00,71.1,69.6,29.58,SW,215,2.0,3.0,95,0.02,,,0.22,WUHU216DAVISVP2,2013-07-23 14:11:00,
2013-07-23 10:16:00,71.1,69.3,29.59,SW,223,1.0,5.0,94,0.02,,,0.22,WUHU216DAVISVP2,2013-07-23 14:16:00,
2013-07-23 10:21:00,71.2,69.7,29.59,SSW,208,1.0,5.0,95,0.01,,,0.22,WUHU216DAVISVP2,2013-07-23 14:21:00,
2013-07-23 10:26:00,71.3,69.8,29.59,SW,221,2.0,5.0,95,0.00,,,0.22,WUHU216DAVISVP2,2013-07-23 14:26:00,
2013-07-23 10:31:00,71.2,69.4,29.59,South,181,5.0,8.0,94,0.00,,,0.22,WUHU216DAVISVP2,2013-07-23 14:31:00,
2013-07-23 10:36:00,71.1,69.6,29.59,SSW,200,0.0,8.0,95,0.00,,,0.22,WUHU216DAVISVP2,2013-07-23 14:36:00,
2013-07-23 10:41:00,71.0,69.2,29.59,SSW,210,2.0,7.0,94,0.00,,,0.22,WUHU216DAVISVP2,2013-07-23 14:41:00,
2013-07-23 10:46:00,70.8,69.3,29.59,SW,219,3.0,7.0,95,0.00,,,0.22,WUHU216DAVISVP2,2013-07-23 14:46:00,
2013-07-23 10:51:00,70.6,68.8,29.59,SSW,193,2.0,4.0,94,0.00,,,0.22,WUHU216DAVISVP2,2013-07-23 14:51:00,
2013-07-23 10:56:00,70.4,68.9,29.60,SW,217,0.0,5.0,95,0.00,,,0.22,WUHU216DAVISVP2,2013-07-23 14:56:00,
2013-07-23 11:01:00,70.4,68.9,29.60,SW,232,0.0,5.0,95,0.00,,,0.22,WUHU216DAVISVP2,2013-07-23 15:01:00,
2013-07-23 11:06:00,70.4,69.2,29.60,WSW,256,0.0,5.0,96,0.00,,,0.22,WUHU216DAVISVP2,2013-07-23 15:06:00,
2013-07-23 11:11:00,70.5,69.3,29.60,SW,233,2.0,5.0,96,0.00,,,0.22,WUHU216DAVISVP2,2013-07-23 15:11:00,
2013-07-23 11:16:00,70.8,69.6,29.60,SSW,199,1.0,4.0,96,0.00,,,0.22,WUHU216DAVISVP2,2013-07-23 15:16:00,
2013-07-23 11:21:00,70.9,69.7,29.60,SW,224,1.0,3.0,96,0.00,,,0.22,WUHU216DAVISVP2,2013-07-23 15:21:00,
2013-07-23 11:26:00,71.1,69.6,29.60,SW,221,3.0,7.0,95,0.00,,,0.22,WUHU216DAVISVP2,2013-07-23 15:26:00,
2013-07-23 11:31:00,71.4,70.2,29.60,SSW,194,3.0,7.0,96,0.00,,,0.22,WUHU216DAVISVP2,2013-07-23 15:31:00,
2013-07-23 11:36:00,71.6,69.8,29.60,SSE,158,2.0,7.0,94,0.00,,,0.22,WUHU216DAVISVP2,2013-07-23 15:36:00,
2013-07-23 11:41:00,71.8,70.3,29.60,SW,222,4.0,7.0,95,0.00,,,0.22,WUHU216DAVISVP2,2013-07-23 15:41:00,
2013-07-23 11:46:00,72.2,70.7,29.60,SSW,203,2.0,5.0,95,0.00,,,0.22,WUHU216DAVISVP2,2013-07-23 15:46:00,
2013-07-23 11:51:00,73.0,71.2,29.60,SSW,211,3.0,5.0,94,0.00,,,0.22,WUHU216DAVISVP2,2013-07-23 15:51:00,
2013-07-23 11:56:00,73.7,71.2,29.60,West,278,1.0,4.0,92,0.00,,,0.22,WUHU216DAVISVP2,2013-07-23 15:56:00,
2013-07-23 12:01:00,74.4,71.6,29.60,South,191,2.0,5.0,91,0.00,,,0.22,WUHU216DAVISVP2,2013-07-23 16:01:00,
2013-07-23 12:06:00,75.1,72.0,29.60,SSW,207,1.0,5.0,90,0.00,,,0.22,WUHU216DAVISVP2,2013-07-23 16:06:00,
2013-07-23 12:11:00,76.2,72.4,29.60,ESE,110,2.0,5.0,88,0.00,,,0.22,WUHU216DAVISVP2,2013-07-23 16:11:00,
2013-07-23 12:16:00,76.8,72.7,29.60,West,276,2.0,6.0,87,0.00,,,0.22,WUHU216DAVISVP2,2013-07-23 16:16:00,
2013-07-23 12:21:00,77.3,73.1,29.60,WSW,248,1.0,6.0,87,0.00,,,0.22,WUHU216DAVISVP2,2013-07-23 16:21:00,
2013-07-23 12:26:00,77.7,72.5,29.60,SSW,194,3.0,6.0,84,0.00,,,0.22,WUHU216DAVISVP2,2013-07-23 16:26:00,
2013-07-23 12:31:00,78.4,72.2,29.59,WSW,257,2.0,8.0,81,0.00,,,0.22,WUHU216DAVISVP2,2013-07-23 16:31:00,
2013-07-23 12:36:00,78.4,72.1,29.59,WSW,252,5.0,8.0,81,0.00,,,0.22,WUHU216DAVISVP2,2013-07-23 16:36:00,
2013-07-23 12:41:00,78.9,72.7,29.59,SW,225,2.0,8.0,81,0.00,,,0.22,WUHU216DAVISVP2,2013-07-23 16:41:00,
2013-07-23 12:46:00,79.4,72.8,29.59,SSW,201,3.0,8.0,80,0.00,,,0.22,WUHU216DAVISVP2,2013-07-23 16:46:00,
2013-07-23 12:51:00,80.0,73.3,29.59,SSW,201,2.0,7.0,80,0.00,,,0.22,WUHU216DAVISVP2,2013-07-23 16:51:00,
2013-07-23 12:56:00,80.4,73.3,29.59,West,269,1.0,6.0,79,0.00,,,0.22,WUHU216DAVISVP2,2013-07-23 16:56:00,
2013-07-23 13:01:00,80.9,72.8,29.59,West,276,1.0,6.0,76,0.00,,,0.22,WUHU216DAVISVP2,2013-07-23 17:01:00,
2013-07-23 13:06:00,81.0,72.1,29.59,WSW,256,2.0,7.0,74,0.00,,,0.22,WUHU216DAVISVP2,2013-07-23 17:06:00,
2013-07-23 13:11:00,80.4,71.2,29.58,WSW,257,5.0,7.0,73,0.00,,,0.22,WUHU216DAVISVP2,2013-07-23 17:11:00,
2013-07-23 13:16:00,79.8,69.8,29.58,West,270,2.0,7.0,71,0.00,,,0.22,WUHU216DAVISVP2,2013-07-23 17:16:00,
2013-07-23 13:21:00,79.3,69.9,29.58,West,260,3.0,7.0,73,0.00,,,0.22,WUHU216DAVISVP2,2013-07-23 17:21:00,
2013-07-23 13:26:00,78.8,70.0,29.57,SW,219,0.0,7.0,74,0.00,,,0.22,WUHU216DAVISVP2,2013-07-23 17:26:00,
2013-07-23 13:31:00,78.6,70.2,29.58,West,263,1.0,6.0,75,0.00,,,0.22,WUHU216DAVISVP2,2013-07-23 17:31:00,
2013-07-23 13:36:00,78.3,69.1,29.58,West,259,2.0,4.0,73,0.00,,,0.22,WUHU216DAVISVP2,2013-07-23 17:36:00,
2013-07-23 13:41:00,78.0,69.6,29.58,West,260,1.0,4.0,75,0.00,,,0.22,WUHU216DAVISVP2,2013-07-23 17:41:00,
2013-07-23 13:46:00,77.7,69.7,29.57,WSW,245,0.0,3.0,76,0.00,,,0.22,WUHU216DAVISVP2,2013-07-23 17:46:00,
2013-07-23 13:51:00,77.6,69.6,29.58,West,259,0.0,3.0,76,0.00,,,0.22,WUHU216DAVISVP2,2013-07-23 17:51:00,
2013-07-23 13:56:00,77.5,69.5,29.59,West,259,2.0,4.0,76,0.00,,,0.22,WUHU216DAVISVP2,2013-07-23 17:56:00,
2013-07-23 14:01:00,77.6,70.2,29.59,WSW,239,0.0,4.0,78,0.00,,,0.22,WUHU216DAVISVP2,2013-07-23 18:01:00,
2013-07-23 14:06:00,77.9,70.5,29.59,West,274,1.0,4.0,78,0.00,,,0.22,WUHU216DAVISVP2,2013-07-23 18:06:00,
2013-07-23 14:11:00,78.0,70.2,29.59,West,259,1.0,4.0,77,0.00,,,0.22,WUHU216DAVISVP2,2013-07-23 18:11:00,
2013-07-23 14:17:00,77.9,70.5,29.59,West,269,0.0,3.0,78,0.00,,,0.22,WUHU216DAVISVP2,2013-07-23 18:17:00,
2013-07-23 14:22:00,77.7,70.4,29.59,West,267,2.0,3.0,78,0.00,,,0.22,WUHU216DAVISVP2,2013-07-23 18:22:00,
2013-07-23 14:27:00,77.2,71.0,29.59,WNW,294,1.0,3.0,81,0.00,,,0.22,WUHU216DAVISVP2,2013-07-23 18:27:00,
2013-07-23 14:32:00,76.1,71.0,29.59,WNW,299,1.0,5.0,84,0.04,,,0.26,WUHU216DAVISVP2,2013-07-23 18:32:00,
2013-07-23 14:37:00,72.6,65.8,29.61,East,84,2.0,14.0,79,0.29,,,0.52,WUHU216DAVISVP2,2013-07-23 18:37:00,
2013-07-23 14:42:00,69.2,64.2,29.60,West,270,2.0,14.0,84,0.31,,,0.53,WUHU216DAVISVP2,2013-07-23 18:42:00,
2013-07-23 14:47:00,67.9,64.5,29.60,North,8,1.0,13.0,89,0.31,,,0.53,WUHU216DAVISVP2,2013-07-23 18:47:00,
2013-07-23 14:52:00,68.0,66.2,29.59,NW,310,2.0,13.0,94,0.31,,,0.53,WUHU216DAVISVP2,2013-07-23 18:52:00,
2013-07-23 14:57:00,69.1,67.9,29.59,WNW,284,1.0,4.0,96,0.31,,,0.53,WUHU216DAVISVP2,2013-07-23 18:57:00,
2013-07-23 15:03:00,69.7,68.2,29.58,WNW,298,3.0,4.0,95,0.31,,,0.53,WUHU216DAVISVP2,2013-07-23 19:03:00,
2013-07-23 15:08:00,69.9,68.1,29.59,North,353,5.0,6.0,94,0.31,,,0.53,WUHU216DAVISVP2,2013-07-23 19:08:00,
2013-07-23 15:13:00,70.1,68.3,29.58,NW,318,2.0,6.0,94,0.31,,,0.53,WUHU216DAVISVP2,2013-07-23 19:13:00,
2013-07-23 15:18:00,70.2,68.1,29.60,NW,304,0.0,5.0,93,0.31,,,0.53,WUHU216DAVISVP2,2013-07-23 19:18:00,
2013-07-23 15:23:00,70.4,67.9,29.61,NE,44,3.0,5.0,92,0.31,,,0.53,WUHU216DAVISVP2,2013-07-23 19:23:00,
2013-07-23 15:28:00,70.5,67.7,29.61,NW,311,1.0,6.0,91,0.31,,,0.53,WUHU216DAVISVP2,2013-07-23 19:28:00,
2013-07-23 15:33:00,70.4,67.9,29.61,NNE,29,4.0,6.0,92,0.26,,,0.53,WUHU216DAVISVP2,2013-07-23 19:33:00,
2013-07-23 15:38:00,70.5,68.3,29.61,North,353,7.0,7.0,93,0.01,,,0.53,WUHU216DAVISVP2,2013-07-23 19:38:00,
2013-07-23 15:43:00,70.8,68.3,29.60,NNE,17,4.0,7.0,92,0.00,,,0.53,WUHU216DAVISVP2,2013-07-23 19:43:00,
2013-07-23 15:49:00,71.1,68.6,29.60,NE,34,2.0,7.0,92,0.00,,,0.53,WUHU216DAVISVP2,2013-07-23 19:49:00,
2013-07-23 15:54:00,71.6,69.4,29.60,NNE,33,0.0,7.0,93,0.00,,,0.53,WUHU216DAVISVP2,2013-07-23 19:54:00,
2013-07-23 16:00:00,72.0,69.5,29.61,ENE,60,0.0,6.0,92,0.00,,,0.53,WUHU216DAVISVP2,2013-07-23 20:00:00,
2013-07-23 16:05:00,72.5,70.0,29.61,North,357,1.0,5.0,92,0.00,,,0.53,WUHU216DAVISVP2,2013-07-23 20:05:00,
2013-07-23 16:10:00,72.9,68.8,29.61,NNE,27,2.0,10.0,87,0.00,,,0.53,WUHU216DAVISVP2,2013-07-23 20:10:00,
2013-07-23 16:15:00,73.0,68.9,29.61,WNW,293,1.0,10.0,87,0.00,,,0.53,WUHU216DAVISVP2,2013-07-23 20:15:00,
2013-07-23 16:20:00,73.2,68.8,29.61,NW,319,2.0,9.0,86,0.00,,,0.53,WUHU216DAVISVP2,2013-07-23 20:20:00,
2013-07-23 16:25:00,73.2,68.4,29.61,NNW,333,1.0,9.0,85,0.00,,,0.53,WUHU216DAVISVP2,2013-07-23 20:25:00,
2013-07-23 16:30:00,72.8,68.0,29.61,NE,47,3.0,8.0,85,0.00,,,0.53,WUHU216DAVISVP2,2013-07-23 20:30:00,
2013-07-23 16:35:00,72.7,67.6,29.61,NE,43,6.0,13.0,84,0.00,,,0.53,WUHU216DAVISVP2,2013-07-23 20:35:00,
2013-07-23 16:40:00,72.7,68.0,29.61,North,357,3.0,13.0,85,0.00,,,0.53,WUHU216DAVISVP2,2013-07-23 20:40:00,
2013-07-23 16:46:00,72.6,67.5,29.61,NNE,24,6.0,12.0,84,0.00,,,0.53,WUHU216DAVISVP2,2013-07-23 20:46:00,
2013-07-23 16:51:00,72.6,67.9,29.61,North,8,4.0,12.0,85,0.00,,,0.53,WUHU216DAVISVP2,2013-07-23 20:51:00,
2013-07-23 16:56:00,72.7,68.0,29.61,NW,321,2.0,10.0,85,0.00,,,0.53,WUHU216DAVISVP2,2013-07-23 20:56:00,
2013-07-23 17:01:00,73.0,66.9,29.61,North,355,1.0,12.0,81,0.00,,,0.53,WUHU216DAVISVP2,2013-07-23 21:01:00,
2013-07-23 17:06:00,73.3,65.8,29.62,NE,51,3.0,12.0,77,0.00,,,0.53,WUHU216DAVISVP2,2013-07-23 21:06:00,
2013-07-23 17:11:00,73.5,66.0,29.61,NNW,328,2.0,11.0,77,0.00,,,0.53,WUHU216DAVISVP2,2013-07-23 21:11:00,
2013-07-23 17:17:00,73.8,66.9,29.61,NW,319,1.0,11.0,79,0.00,,,0.53,WUHU216DAVISVP2,2013-07-23 21:17:00,
2013-07-23 17:22:00,74.0,65.2,29.61,NNE,19,3.0,10.0,74,0.00,,,0.53,WUHU216DAVISVP2,2013-07-23 21:22:00,
2013-07-23 17:27:00,73.7,65.4,29.61,NNW,345,3.0,10.0,75,0.00,,,0.53,WUHU216DAVISVP2,2013-07-23 21:27:00,
2013-07-23 17:32:00,73.9,65.3,29.61,NNW,332,2.0,9.0,74,0.00,,,0.53,WUHU216DAVISVP2,2013-07-23 21:32:00,
2013-07-23 17:37:00,73.9,64.7,29.61,NNE,33,3.0,9.0,73,0.00,,,0.53,WUHU216DAVISVP2,2013-07-23 21:37:00,
2013-07-23 17:42:00,73.9,65.1,29.61,NNE,31,4.0,9.0,74,0.00,,,0.53,WUHU216DAVISVP2,2013-07-23 21:42:00,
2013-07-23 17:47:00,74.0,64.2,29.61,NE,49,2.0,11.0,71,0.00,,,0.53,WUHU216DAVISVP2,2013-07-23 21:47:00,
2013-07-23 17:52:00,74.3,64.1,29.61,NNE,15,5.0,11.0,70,0.00,,,0.53,WUHU216DAVISVP2,2013-07-23 21:52:00,
2013-07-23 17:57:00,74.4,64.6,29.61,WNW,288,2.0,9.0,71,0.00,,,0.53,WUHU216DAVISVP2,2013-07-23 21:57:00,
2013-07-23 18:02:00,74.2,64.4,29.62,ENE,59,1.0,9.0,71,0.00,,,0.53,WUHU216DAVISVP2,2013-07-23 22:02:00,
2013-07-23 18:07:00,73.9,64.1,29.61,West,277,1.0,9.0,71,0.00,,,0.53,WUHU216DAVISVP2,2013-07-23 22:07:00,
2013-07-23 18:12:00,73.6,64.2,29.61,WNW,297,0.0,9.0,72,0.00,,,0.53,WUHU216DAVISVP2,2013-07-23 22:12:00,
2013-07-23 18:17:00,73.7,64.3,29.61,WNW,302,3.0,8.0,72,0.00,,,0.53,WUHU216DAVISVP2,2013-07-23 22:17:00,
2013-07-23 18:23:00,74.0,64.6,29.61,WNW,283,1.0,8.0,72,0.00,,,0.53,WUHU216DAVISVP2,2013-07-23 22:23:00,
2013-07-23 18:28:00,74.0,63.0,29.61,NW,306,3.0,11.0,68,0.00,,,0.53,WUHU216DAVISVP2,2013-07-23 22:28:00,
2013-07-23 18:33:00,73.9,63.1,29.61,NNW,332,2.0,11.0,69,0.00,,,0.53,WUHU216DAVISVP2,2013-07-23 22:33:00,
2013-07-23 18:38:00,73.9,63.3,29.62,West,271,0.0,11.0,69,0.00,,,0.53,WUHU216DAVISVP2,2013-07-23 22:38:00,
2013-07-23 18:43:00,74.0,63.8,29.62,West,270,2.0,10.0,70,0.00,,,0.53,WUHU216DAVISVP2,2013-07-23 22:43:00,
2013-07-23 18:48:00,73.9,63.3,29.62,East,94,3.0,8.0,69,0.00,,,0.53,WUHU216DAVISVP2,2013-07-23 22:48:00,
2013-07-23 18:53:00,73.5,62.7,29.62,North,353,3.0,9.0,69,0.00,,,0.53,WUHU216DAVISVP2,2013-07-23 22:53:00,
2013-07-23 18:58:00,73.0,63.2,29.62,NW,307,1.0,9.0,71,0.00,,,0.53,WUHU216DAVISVP2,2013-07-23 22:58:00,
2013-07-23 19:03:00,72.8,62.8,29.62,NNW,347,1.0,8.0,71,0.00,,,0.53,WUHU216DAVISVP2,2013-07-23 23:03:00,
2013-07-23 19:08:00,72.9,63.3,29.62,WNW,299,0.0,8.0,72,0.00,,,0.53,WUHU216DAVISVP2,2013-07-23 23:08:00,
2013-07-23 19:13:00,73.1,63.3,29.62,WNW,291,2.0,5.0,71,0.00,,,0.53,WUHU216DAVISVP2,2013-07-23 23:13:00,
2013-07-23 19:19:00,73.2,63.4,29.63,North,358,4.0,11.0,71,0.00,,,0.53,WUHU216DAVISVP2,2013-07-23 23:19:00,
2013-07-23 19:24:00,73.1,62.5,29.63,NE,56,2.0,11.0,69,0.00,,,0.53,WUHU216DAVISVP2,2013-07-23 23:24:00,
2013-07-23 19:29:00,72.9,61.1,29.63,ENE,70,2.0,11.0,66,0.00,,,0.53,WUHU216DAVISVP2,2013-07-23 23:29:00,
2013-07-23 19:34:00,72.7,60.9,29.63,NNE,12,13.0,13.0,66,0.00,,,0.53,WUHU216DAVISVP2,2013-07-23 23:34:00,
2013-07-23 19:39:00,72.4,61.0,29.63,NE,44,2.0,13.0,67,0.00,,,0.53,WUHU216DAVISVP2,2013-07-23 23:39:00,
2013-07-23 19:44:00,72.2,61.7,29.63,NW,318,1.0,13.0,69,0.00,,,0.53,WUHU216DAVISVP2,2013-07-23 23:44:00,
2013-07-23 19:50:00,71.9,60.5,29.64,WNW,297,1.0,12.0,67,0.00,,,0.53,WUHU216DAVISVP2,2013-07-23 23:50:00,
2013-07-23 19:55:00,71.6,60.7,29.64,NE,36,5.0,9.0,68,0.00,,,0.53,WUHU216DAVISVP2,2013-07-23 23:55:00,
2013-07-23 20:00:00,71.1,60.6,29.64,NNW,337,2.0,8.0,69,0.00,,,0.53,WUHU216DAVISVP2,2013-07-24 00:00:00,
2013-07-23 20:05:00,70.8,59.5,29.64,NNE,20,4.0,8.0,67,0.00,,,0.53,WUHU216DAVISVP2,2013-07-24 00:05:00,
2013-07-23 20:10:00,70.6,59.7,29.65,North,359,4.0,10.0,68,0.00,,,0.53,WUHU216DAVISVP2,2013-07-24 00:10:00,
2013-07-23 20:15:00,70.2,58.9,29.65,NW,320,1.0,10.0,67,0.00,,,0.53,WUHU216DAVISVP2,2013-07-24 00:15:00,
2013-07-23 20:20:00,69.8,58.5,29.65,ENE,66,1.0,9.0,67,0.00,,,0.53,WUHU216DAVISVP2,2013-07-24 00:20:00,
2013-07-23 20:25:00,69.6,58.3,29.65,North,353,3.0,9.0,67,0.00,,,0.53,WUHU216DAVISVP2,2013-07-24 00:25:00,
2013-07-23 20:30:00,69.4,58.6,29.65,NE,44,2.0,12.0,68,0.00,,,0.53,WUHU216DAVISVP2,2013-07-24 00:30:00,
2013-07-23 20:35:00,69.0,58.4,29.66,NW,318,1.0,12.0,69,0.00,,,0.53,WUHU216DAVISVP2,2013-07-24 00:35:00,
2013-07-23 20:41:00,68.7,57.7,29.66,NW,304,1.0,11.0,68,0.00,,,0.53,WUHU216DAVISVP2,2013-07-24 00:41:00,
2013-07-23 20:46:00,68.4,57.0,29.66,NE,52,5.0,11.0,67,0.00,,,0.53,WUHU216DAVISVP2,2013-07-24 00:46:00,
2013-07-23 20:51:00,68.0,56.6,29.66,NW,309,2.0,15.0,67,0.00,,,0.53,WUHU216DAVISVP2,2013-07-24 00:51:00,
2013-07-23 20:56:00,67.7,56.3,29.67,NNW,338,6.0,15.0,67,0.00,,,0.53,WUHU216DAVISVP2,2013-07-24 00:56:00,
2013-07-23 21:01:00,67.4,56.5,29.67,NW,311,1.0,13.0,68,0.00,,,0.53,WUHU216DAVISVP2,2013-07-24 01:01:00,
2013-07-23 21:06:00,67.1,56.6,29.67,NE,44,4.0,13.0,69,0.00,,,0.53,WUHU216DAVISVP2,2013-07-24 01:06:00,
2013-07-23 21:11:00,66.7,56.6,29.67,ENE,68,5.0,8.0,70,0.00,,,0.53,WUHU216DAVISVP2,2013-07-24 01:11:00,
2013-07-23 21:16:00,66.4,56.3,29.68,West,260,3.0,8.0,70,0.00,,,0.53,WUHU216DAVISVP2,2013-07-24 01:16:00,
2013-07-23 21:21:00,65.8,55.7,29.68,NNW,337,2.0,8.0,70,0.00,,,0.53,WUHU216DAVISVP2,2013-07-24 01:21:00,
2013-07-23 21:27:00,65.2,55.9,29.69,WNW,290,1.0,7.0,72,0.00,,,0.53,WUHU216DAVISVP2,2013-07-24 01:27:00,
2013-07-23 21:32:00,64.8,55.7,29.69,NE,39,6.0,7.0,72,0.00,,,0.53,WUHU216DAVISVP2,2013-07-24 01:32:00,
2013-07-23 21:37:00,64.4,55.3,29.70,NNE,20,3.0,14.0,72,0.00,,,0.53,WUHU216DAVISVP2,2013-07-24 01:37:00,
2013-07-23 21:42:00,63.9,55.2,29.71,NNE,31,7.0,14.0,73,0.00,,,0.53,WUHU216DAVISVP2,2013-07-24 01:42:00,
2013-07-23 21:47:00,63.7,55.0,29.71,NW,314,4.0,13.0,73,0.00,,,0.53,WUHU216DAVISVP2,2013-07-24 01:47:00,
2013-07-23 21:52:00,63.5,54.8,29.71,NNE,32,2.0,13.0,73,0.00,,,0.53,WUHU216DAVISVP2,2013-07-24 01:52:00,
2013-07-23 21:57:00,63.2,54.9,29.72,WNW,301,3.0,12.0,74,0.00,,,0.53,WUHU216DAVISVP2,2013-07-24 01:57:00,
2013-07-23 22:02:00,63.1,54.4,29.72,NNE,25,3.0,11.0,73,0.00,,,0.53,WUHU216DAVISVP2,2013-07-24 02:02:00,
2013-07-23 22:07:00,62.9,54.2,29.72,North,359,6.0,11.0,73,0.00,,,0.53,WUHU216DAVISVP2,2013-07-24 02:07:00,
2013-07-23 22:13:00,62.7,54.4,29.73,NNE,29,4.0,13.0,74,0.00,,,0.53,WUHU216DAVISVP2,2013-07-24 02:13:00,
2013-07-23 22:18:00,62.4,53.8,29.73,North,9,6.0,13.0,73,0.00,,,0.53,WUHU216DAVISVP2,2013-07-24 02:18:00,
2013-07-23 22:23:00,62.1,53.1,29.74,NE,43,5.0,11.0,72,0.00,,,0.53,WUHU216DAVISVP2,2013-07-24 02:23:00,
2013-07-23 22:28:00,61.8,52.8,29.74,NNE,22,3.0,15.0,72,0.00,,,0.53,WUHU216DAVISVP2,2013-07-24 02:28:00,
2013-07-23 22:33:00,61.5,52.9,29.74,NW,318,2.0,15.0,73,0.00,,,0.53,WUHU216DAVISVP2,2013-07-24 02:33:00,
2013-07-23 22:38:00,61.2,52.6,29.74,NW,318,3.0,13.0,73,0.00,,,0.53,WUHU216DAVISVP2,2013-07-24 02:38:00,
2013-07-23 22:43:00,60.9,52.3,29.74,NE,36,4.0,13.0,73,0.00,,,0.53,WUHU216DAVISVP2,2013-07-24 02:43:00,
2013-07-23 22:48:00,60.6,52.4,29.75,NNE,29,4.0,9.0,74,0.00,,,0.53,WUHU216DAVISVP2,2013-07-24 02:48:00,
2013-07-23 22:54:00,60.3,52.4,29.75,ENE,58,1.0,9.0,75,0.00,,,0.53,WUHU216DAVISVP2,2013-07-24 02:54:00,
2013-07-23 22:59:00,60.2,52.3,29.75,NNE,30,0.0,8.0,75,0.00,,,0.53,WUHU216DAVISVP2,2013-07-24 02:59:00,
2013-07-23 23:04:00,60.1,52.3,29.75,ENE,75,2.0,8.0,75,0.00,,,0.53,WUHU216DAVISVP2,2013-07-24 03:04:00,
2013-07-23 23:09:00,60.1,52.3,29.76,NNW,332,1.0,7.0,75,0.00,,,0.53,WUHU216DAVISVP2,2013-07-24 03:09:00,
2013-07-23 23:14:00,60.0,52.5,29.76,NNW,332,1.0,7.0,76,0.00,,,0.53,WUHU216DAVISVP2,2013-07-24 03:14:00,
2013-07-23 23:19:00,59.9,52.1,29.76,North,9,5.0,7.0,75,0.00,,,0.53,WUHU216DAVISVP2,2013-07-24 03:19:00,
2013-07-23 23:24:00,60.0,52.2,29.76,NW,321,1.0,10.0,75,0.00,,,0.53,WUHU216DAVISVP2,2013-07-24 03:24:00,
2013-07-23 23:29:00,60.1,52.3,29.76,WNW,291,1.0,10.0,75,0.00,,,0.53,WUHU216DAVISVP2,2013-07-24 03:29:00,
2013-07-23 23:34:00,60.1,51.9,29.76,NNE,26,4.0,9.0,74,0.00,,,0.53,WUHU216DAVISVP2,2013-07-24 03:34:00,
2013-07-23 23:39:00,60.2,52.0,29.76,NNW,327,6.0,8.0,74,0.00,,,0.53,WUHU216DAVISVP2,2013-07-24 03:39:00,
2013-07-23 23:45:00,60.3,51.7,29.77,NNE,17,1.0,12.0,73,0.00,,,0.53,WUHU216DAVISVP2,2013-07-24 03:45:00,
2013-07-23 23:50:00,60.4,51.8,29.77,NE,50,4.0,12.0,73,0.00,,,0.53,WUHU216DAVISVP2,2013-07-24 03:50:00,
2013-07-23 23:55:00,60.6,51.7,29.77,NNE,30,5.0,11.0,72,0.00,,,0.53,WUHU216DAVISVP2,2013-07-24 03:55:00,